TimeMST,TemperatureF,Dew PointF,Humidity,Sea Level PressureIn,VisibilityMPH,Wind Direction,Wind SpeedMPH,Gust SpeedMPH,PrecipitationIn,Events,Conditions,WindDirDegrees,DateUTC
12:53 AM,37.9,15.1,39,29.99,10.0,Calm,Calm,-,N/A,,Clear,0,2013-01-19 07:53:00
1:53 AM,41.0,12.0,31,29.99,10.0,NNW,18.4,27.6,N/A,,Clear,330,2013-01-19 08:53:00
2:53 AM,37.0,12.9,37,30.05,10.0,Calm,Calm,-,N/A,,Clear,0,2013-01-19 09:53:00
3:53 AM,34.0,12.0,40,30.06,10.0,Calm,Calm,-,N/A,,Clear,0,2013-01-19 10:53:00
4:53 AM,36.0,12.9,39,30.09,10.0,SSE,6.9,-,N/A,,Clear,160,2013-01-19 11:53:00
5:53 AM,35.1,9.0,34,30.10,10.0,North,3.5,-,N/A,,Clear,360,2013-01-19 12:53:00
6:53 AM,36.0,10.0,34,30.12,10.0,North,5.8,-,N/A,,Clear,10,2013-01-19 13:53:00
7:53 AM,35.1,10.0,35,30.14,10.0,South,5.8,-,N/A,,Clear,180,2013-01-19 14:53:00
8:53 AM,37.0,12.9,37,30.15,10.0,SSE,3.5,-,N/A,,Clear,160,2013-01-19 15:53:00
9:53 AM,39.9,16.0,38,30.15,10.0,SE,4.6,-,N/A,,Clear,140,2013-01-19 16:53:00
10:53 AM,42.1,17.1,37,30.19,10.0,NNE,8.1,-,N/A,,Clear,20,2013-01-19 17:53:00
11:53 AM,41.0,17.1,38,30.18,10.0,North,11.5,-,N/A,,Clear,350,2013-01-19 18:53:00
12:53 PM,39.9,18.0,41,30.19,10.0,North,11.5,24.2,N/A,,Clear,360,2013-01-19 19:53:00
1:53 PM,39.0,19.0,45,30.18,10.0,North,12.7,21.9,N/A,,Clear,360,2013-01-19 20:53:00
2:53 PM,39.0,19.0,45,30.20,10.0,North,9.2,-,N/A,,Clear,350,2013-01-19 21:53:00
3:53 PM,37.9,21.0,51,30.21,10.0,NNE,5.8,-,N/A,,Clear,20,2013-01-19 22:53:00
4:53 PM,33.1,21.9,64,30.21,10.0,Calm,Calm,-,N/A,,Clear,0,2013-01-19 23:53:00
5:53 PM,28.0,18.0,66,30.21,10.0,Calm,Calm,-,N/A,,Clear,0,2013-01-20 00:53:00
6:53 PM,28.0,18.0,66,30.19,10.0,SSE,4.6,-,N/A,,Clear,160,2013-01-20 01:53:00
7:53 PM,27.0,18.0,69,30.19,10.0,South,8.1,-,N/A,,Clear,180,2013-01-20 02:53:00
8:53 PM,27.0,18.0,69,30.16,10.0,SSW,5.8,-,N/A,,Clear,200,2013-01-20 03:53:00
9:53 PM,27.0,18.0,69,30.13,10.0,South,10.4,-,N/A,,Clear,170,2013-01-20 04:53:00
10:53 PM,26.1,15.1,63,30.11,10.0,SW,6.9,-,N/A,,Clear,230,2013-01-20 05:53:00
11:53 PM,30.9,9.0,40,30.09,10.0,SW,4.6,-,N/A,,Clear,220,2013-01-20 06:53:00